Regional Weather Roundup
Issued by NWS

Home | Current Version | Previous Version | Graphics & Text | Print | Product List | Glossary On
Versions: 1 2 3 4 5 6 7 8 9 10 11 12 13 14 15 16 17 18 19 20 21 22 23 24 25 26 27 28 29 30 31 32 33 34 35 36 37 38 39 40 41 42 43 44 45 46 47 48 49 50
000
ASUS43 KBIS 201420
RWRND

NORTH DAKOTA REGIONAL WEATHER ROUNDUP
NATIONAL WEATHER SERVICE BISMARCK ND
900 AM CDT SAT SEP 20 2014

NOTE: "FAIR" INDICATES FEW OR NO CLOUDS BELOW 12,000 FEET WITH NO
SIGNIFICANT WEATHER AND/OR OBSTRUCTIONS TO VISIBILITY.


NDZ001>003-009>011-017-201500-
NORTHWEST NORTH DAKOTA

CITY           SKY/WX    TMP DP  RH WIND       PRES   REMARKS
WILLISTON      PTSUNNY   57  50  77 N8        29.94R
MINOT          PTSUNNY   59  51  75 W18       29.86R
MINOT AFB      DRIZZLE   57  54  88 NW29G38   29.85R
$$

NDZ018>021-031>035-040>046-201500-
SOUTHWEST NORTH DAKOTA

CITY           SKY/WX    TMP DP  RH WIND       PRES   REMARKS
BISMARCK       PTSUNNY   58  52  80 SW7       29.88R
DICKINSON      MOSUNNY   56  48  74 W15       29.93R
GARRISON         N/A     58  56  93 W6        29.84F
HETTINGER ARPT SUNNY     58  47  66 W17G24    29.98R
$$

NDZ004>008-012>016-024-026-027-054-201500-
NORTHEAST NORTH DAKOTA

CITY           SKY/WX    TMP DP  RH WIND       PRES   REMARKS
GRAND FORKS    MOSUNNY   56  53  90 S5        29.80S
GRND FRKS AFB  SUNNY     56  56  99 SW6       29.81S
DEVILS LAKE    MOSUNNY   59  52  77 W8        29.78F
$$

NDZ022-023-025-028>030-036>039-047>053-201500-
SOUTHEAST NORTH DAKOTA

CITY           SKY/WX    TMP DP  RH WIND       PRES   REMARKS
FARGO          SUNNY     56  53  90 SW5       29.83R
JAMESTOWN      SUNNY     57  54  89 W6        29.83F
$$



USA.gov is the U.S. government's official web portal to all federal, state and local government web resources and services.